111  
ASUS44 KHUN 261110  
RWRHUN  
 
WEATHER ROUNDUP FOR THE TENNESSEE VALLEY  
NATIONAL WEATHER SERVICE HUNTSVILLE AL  
600 AM CDT WED APR 26 2017  
 
ALZ001>004-261200-  
NORTHWEST ALABAMA  
 
CITY SKY/WX TMP DP RH WIND PRES REMARKS
 
COURTLAND HCN N/A 55 N/A N/A CALM N/A  
RUSSELLVILLE N/A 57 N/A N/A MISG N/A  
SHOALS AIRPORT PTCLDY 60 55 83 S6 29.76R  
SHOALS TVA RES N/A 59 N/A N/A MISG N/A  

 
 
ALZ005>007-016-261200-  
NORTH CENTRAL ALABAMA  
 
CITY SKY/WX TMP DP RH WIND PRES REMARKS
 
CULLMAN AG STN N/A 52 N/A N/A CALM N/A  
DECATUR AP CLEAR 59 57 93 S6 29.77R  
HUNTSVILLE AP PTCLDY 60 57 89 S5 29.78R  
MERIDIANVILLE CLEAR 61 54 77 CALM 29.78R  
REDSTONE ARSN CLEAR 57 55 95 S3 29.77R  
VINEMONT AP FAIR 56 54 93 CALM 29.80R  

 
 
ALZ008>010-261200-  
NORTHEAST ALABAMA  
 
CITY SKY/WX TMP DP RH WIND PRES REMARKS
 
ALBERTVILLE CLEAR 59 59 100 SW3 29.78R  
FORT PAYNE CLEAR 50 46 87 CALM 29.79R FOG  
SCOTTSBORO AP CLEAR 52 52 100 CALM 29.80R  
SCOTTSBORO HCN N/A 50 N/A N/A MISG N/A  
VALLEY HEAD N/A 50 N/A N/A MISG N/A  

 
 
TNZ076-096-097-261200-  
SOUTHEASTERN MIDDLE TENNESSEE  
 
CITY SKY/WX TMP DP RH WIND PRES REMARKS
 
TULLAHOMA CLEAR 50 48 93 CALM 29.79R  
WINCHESTER CLEAR 55 54 94 CALM 29.78R  

 
   
..SURROUNDING SITES
 
 
 
CITY SKY/WX TMP DP RH WIND PRES REMARKS
 
ATLANTA PTCLDY 59 55 87 SW5 29.78R  
ANNISTON CLEAR 52 52 100 CALM 29.80R  
BIRMINGHAM PTCLDY 62 57 83 SW6 29.81R  
CHATTANOOGA PTCLDY 56 54 93 CALM 29.78R  
CORINTH FAIR 59 55 88 S7 29.71R  
DALTON CLEAR 52 52 100 CALM 29.79R  
GADSDEN CLEAR 52 52 100 CALM 29.80R FOG  
GOLDEN TRNGL CLEAR 57 52 82 CALM 29.72R  
HALEYVILLE FAIR 57 56 96 S6 29.78R  
JACKSON TN PTCLDY 62 57 83 S8 N/A  
MEMPHIS MOCLDY 65 59 81 S8 29.65R  
NASHVILLE PTCLDY 55 54 96 S6 29.74R  
OXFORD MS FAIR 59 55 88 S6 29.72R  
ROME PTCLDY 52 50 93 CALM 29.78R  
SAVANNAH CLEAR 59 57 94 SE5 29.71R  
TUPELO CLEAR 60 55 83 SE8 29.72R  
TUSCALOOSA CLEAR 57 56 96 CALM 29.77R  

 
   
..GULF COAST WEATHER
 
 
 
CITY SKY/WX TMP DP RH WIND PRES REMARKS
 
GULFPORT PTCLDY 70 61 73 S9 29.71S  
PASCAGOULA MOCLDY 69 58 67 S7 29.74R  
MOBILE PTCLDY 61 57 87 SE6 29.75R  
GULF SHORES PTSUNNY 69 60 74 S10 29.76S  
PENSACOLA PTCLDY 70 58 65 S10 29.76R  
DESTIN PTCLDY 73 61 65 S8 29.78R  
PANAMA CITY PTCLDY 64 59 85 S3 29.80R  
APPALACHICOLA CLOUDY 62 61 96 CALM 29.80R  

 
 
 
 
CLICK HERE TO GO TO PREVIOUS BULLETINS.

The Nexlab AL Page
The Nexlab TN Page Main Text Page